Powrót do katalogu

OPS 4078

DMSP 4B F2

AktywnyPogodaSSO
NORAD 3510·PAYLOAD·🇺🇸 United States

Wystrzelony Oct 23, 1968 z Vandenberg Space Force Base

Loading…

Następne Przeloty (najbliższe 24 godziny)

TLE

ŚwieżeSource: Space-Track

Epoka: Sep 14, 2026, 08:04 UTC

1 03510U 68092A   26257.33634318  .00000068  00000-0  44454-4 0  9996
2 03510  98.5831  18.3329 0030747  67.4154 293.0275 14.28272791  9931

Śledź OPS 4078 w czasie rzeczywistym z AllMySat

Download on the App Store